Time,TemperatureF,DewpointF,PressureIn,WindDirection,WindDirectionDegrees,WindSpeedMPH,WindSpeedGustMPH,Humidity,HourlyPrecipIn,Conditions,Clouds,dailyrainin,SoftwareType,DateUTC
2014-03-08 00:03:00,-999.0,-99.9,29.93,North,11,0.0,3.0,-999,0.00,,,0.00,weatherlink.com 1.10,2014-03-08 05:03:00,
2014-03-08 00:18:00,-999.0,-99.9,29.93,North,11,0.0,2.0,-999,0.00,,,0.00,weatherlink.com 1.10,2014-03-08 05:18:00,
2014-03-08 00:33:00,-999.0,-99.9,29.92,North,11,1.0,2.0,-999,0.00,,,0.00,weatherlink.com 1.10,2014-03-08 05:33:00,
2014-03-08 00:48:00,-999.0,-99.9,29.92,North,11,0.0,3.0,-999,0.00,,,0.00,weatherlink.com 1.10,2014-03-08 05:48:00,
2014-03-08 01:04:00,-999.0,-99.9,29.93,North,11,0.0,0.0,-999,0.00,,,0.00,weatherlink.com 1.10,2014-03-08 06:04:00,
2014-03-08 01:19:00,-999.0,-99.9,29.93,North,11,0.0,0.0,-999,0.00,,,0.00,weatherlink.com 1.10,2014-03-08 06:19:00,
2014-03-08 01:34:00,-999.0,-99.9,29.93,North,11,0.0,0.0,-999,0.00,,,0.00,weatherlink.com 1.10,2014-03-08 06:34:00,
2014-03-08 01:49:00,-999.0,-99.9,29.93,North,11,0.0,0.0,-999,0.00,,,0.00,weatherlink.com 1.10,2014-03-08 06:49:00,
2014-03-08 02:04:00,-999.0,-99.9,29.93,North,11,0.0,0.0,-999,0.00,,,0.00,weatherlink.com 1.10,2014-03-08 07:04:00,
2014-03-08 02:19:00,29.7,26.0,29.93,North,11,0.0,0.0,85,0.00,,,0.00,weatherlink.com 1.10,2014-03-08 07:19:00,
2014-03-08 02:34:00,29.4,26.0,29.93,North,11,0.0,0.0,86,0.00,,,0.00,weatherlink.com 1.10,2014-03-08 07:34:00,
2014-03-08 02:49:00,29.1,25.0,29.92,North,11,0.0,0.0,86,0.00,,,0.00,weatherlink.com 1.10,2014-03-08 07:49:00,
2014-03-08 03:04:00,28.5,25.0,29.92,North,11,0.0,0.0,88,0.00,,,0.00,weatherlink.com 1.10,2014-03-08 08:04:00,
2014-03-08 03:19:00,28.5,26.0,29.92,North,11,0.0,0.0,89,0.00,,,0.00,weatherlink.com 1.10,2014-03-08 08:19:00,
2014-03-08 03:34:00,28.5,26.0,29.92,North,11,0.0,0.0,89,0.00,,,0.00,weatherlink.com 1.10,2014-03-08 08:34:00,
2014-03-08 03:49:00,28.1,25.0,29.91,North,11,0.0,0.0,89,0.00,,,0.00,weatherlink.com 1.10,2014-03-08 08:49:00,
2014-03-08 04:04:00,28.1,25.0,29.92,North,11,0.0,0.0,89,0.00,,,0.00,weatherlink.com 1.10,2014-03-08 09:04:00,
2014-03-08 04:19:00,28.0,25.0,29.93,North,11,0.0,0.0,89,0.00,,,0.00,weatherlink.com 1.10,2014-03-08 09:19:00,
2014-03-08 04:34:00,28.1,26.0,29.92,North,11,0.0,0.0,90,0.00,,,0.00,weatherlink.com 1.10,2014-03-08 09:34:00,
2014-03-08 04:49:00,28.4,26.0,29.92,North,11,0.0,0.0,89,0.00,,,0.00,weatherlink.com 1.10,2014-03-08 09:49:00,
2014-03-08 05:04:00,28.3,26.0,29.93,North,11,0.0,0.0,89,0.00,,,0.00,weatherlink.com 1.10,2014-03-08 10:04:00,
2014-03-08 05:19:00,28.2,25.0,29.93,North,11,0.0,0.0,89,0.00,,,0.00,weatherlink.com 1.10,2014-03-08 10:19:00,
2014-03-08 05:34:00,28.0,25.0,29.94,North,11,0.0,0.0,89,0.00,,,0.00,weatherlink.com 1.10,2014-03-08 10:34:00,
2014-03-08 05:49:00,28.1,26.0,29.94,North,11,0.0,0.0,90,0.00,,,0.00,weatherlink.com 1.10,2014-03-08 10:49:00,
2014-03-08 06:04:00,28.3,26.0,29.94,North,11,0.0,0.0,90,0.00,,,0.00,weatherlink.com 1.10,2014-03-08 11:04:00,
2014-03-08 06:19:00,28.2,26.0,29.95,North,11,0.0,0.0,90,0.00,,,0.00,weatherlink.com 1.10,2014-03-08 11:19:00,
2014-03-08 06:34:00,28.0,26.0,29.95,North,11,0.0,0.0,90,0.00,,,0.00,weatherlink.com 1.10,2014-03-08 11:34:00,
2014-03-08 06:49:00,27.9,25.0,29.94,North,11,0.0,0.0,90,0.00,,,0.00,weatherlink.com 1.10,2014-03-08 11:49:00,
2014-03-08 07:04:00,27.9,26.0,29.95,North,11,0.0,0.0,91,0.00,,,0.00,weatherlink.com 1.10,2014-03-08 12:04:00,
2014-03-08 07:19:00,28.5,26.0,29.95,North,11,0.0,0.0,91,0.00,,,0.00,weatherlink.com 1.10,2014-03-08 12:19:00,
2014-03-08 07:34:00,28.8,27.0,29.95,NNW,342,1.0,2.0,91,0.00,,,0.00,weatherlink.com 1.10,2014-03-08 12:34:00,
2014-03-08 07:49:00,30.3,28.0,29.96,WSW,243,0.0,3.0,91,0.00,,,0.00,weatherlink.com 1.10,2014-03-08 12:49:00,
2014-03-08 08:04:00,32.6,30.0,29.96,SSW,212,3.0,4.0,88,0.00,,,0.00,weatherlink.com 1.10,2014-03-08 13:04:00,
2014-03-08 08:20:00,34.4,30.0,29.96,SSW,213,1.0,3.0,83,0.00,,,0.00,weatherlink.com 1.10,2014-03-08 13:20:00,
2014-03-08 08:35:00,36.1,31.0,29.96,WSW,240,0.0,3.0,80,0.00,,,0.00,weatherlink.com 1.10,2014-03-08 13:35:00,
2014-03-08 08:50:00,37.3,31.0,29.96,WNW,288,0.0,2.0,78,0.00,,,0.00,weatherlink.com 1.10,2014-03-08 13:50:00,
2014-03-08 09:05:00,39.6,32.0,29.96,South,191,0.0,5.0,75,0.00,,,0.00,weatherlink.com 1.10,2014-03-08 14:05:00,
2014-03-08 09:20:00,41.5,33.0,29.96,SSW,199,1.0,2.0,73,0.00,,,0.00,weatherlink.com 1.10,2014-03-08 14:20:00,
2014-03-08 09:35:00,43.3,34.0,29.96,WNW,288,0.0,3.0,70,0.00,,,0.00,weatherlink.com 1.10,2014-03-08 14:35:00,
2014-03-08 09:50:00,46.2,35.0,29.95,WSW,252,2.0,4.0,65,0.00,,,0.00,weatherlink.com 1.10,2014-03-08 14:50:00,
2014-03-08 10:05:00,49.2,36.0,29.95,West,263,0.0,5.0,61,0.00,,,0.00,weatherlink.com 1.10,2014-03-08 15:05:00,
2014-03-08 10:20:00,50.7,37.0,29.94,SW,218,0.0,3.0,59,0.00,,,0.00,weatherlink.com 1.10,2014-03-08 15:20:00,
2014-03-08 10:35:00,51.7,37.0,29.94,SW,236,2.0,3.0,57,0.00,,,0.00,weatherlink.com 1.10,2014-03-08 15:35:00,
2014-03-08 10:50:00,52.6,37.0,29.94,SW,228,4.0,4.0,55,0.00,,,0.00,weatherlink.com 1.10,2014-03-08 15:50:00,
2014-03-08 11:05:00,52.8,38.0,29.93,South,172,1.0,5.0,57,0.00,,,0.00,weatherlink.com 1.10,2014-03-08 16:05:00,
2014-03-08 11:20:00,54.2,38.0,29.93,SW,231,0.0,3.0,54,0.00,,,0.00,weatherlink.com 1.10,2014-03-08 16:20:00,
2014-03-08 11:35:00,55.4,40.0,29.93,SW,234,2.0,4.0,56,0.00,,,0.00,weatherlink.com 1.10,2014-03-08 16:35:00,
2014-03-08 11:50:00,55.6,38.0,29.93,WSW,256,0.0,5.0,51,0.00,,,0.00,weatherlink.com 1.10,2014-03-08 16:50:00,
2014-03-08 12:05:00,57.3,40.0,29.92,NW,321,2.0,4.0,53,0.00,,,0.00,weatherlink.com 1.10,2014-03-08 17:05:00,
2014-03-08 12:20:00,58.2,39.0,29.91,NW,311,1.0,4.0,50,0.00,,,0.00,weatherlink.com 1.10,2014-03-08 17:20:00,
2014-03-08 12:35:00,59.0,41.0,29.90,NNE,17,4.0,6.0,51,0.00,,,0.00,weatherlink.com 1.10,2014-03-08 17:35:00,
2014-03-08 12:51:00,59.6,41.0,29.89,NW,325,3.0,6.0,50,0.00,,,0.00,weatherlink.com 1.10,2014-03-08 17:51:00,
2014-03-08 13:06:00,60.1,41.0,29.89,NW,314,2.0,7.0,49,0.00,,,0.00,weatherlink.com 1.10,2014-03-08 18:06:00,
2014-03-08 13:21:00,60.5,40.0,29.89,West,261,2.0,10.0,48,0.00,,,0.00,weatherlink.com 1.10,2014-03-08 18:21:00,
2014-03-08 13:36:00,60.3,40.0,29.89,NNW,332,4.0,7.0,48,0.00,,,0.00,weatherlink.com 1.10,2014-03-08 18:36:00,
2014-03-08 13:51:00,60.5,41.0,29.88,NNW,340,0.0,4.0,49,0.00,,,0.00,weatherlink.com 1.10,2014-03-08 18:51:00,
2014-03-08 14:06:00,61.9,43.0,29.88,North,350,5.0,7.0,50,0.00,,,0.00,weatherlink.com 1.10,2014-03-08 19:06:00,
2014-03-08 14:21:00,62.5,42.0,29.87,WNW,299,2.0,4.0,47,0.00,,,0.00,weatherlink.com 1.10,2014-03-08 19:21:00,
2014-03-08 14:36:00,63.8,41.0,29.87,WSW,238,6.0,6.0,44,0.00,,,0.00,weatherlink.com 1.10,2014-03-08 19:36:00,
2014-03-08 14:51:00,63.4,42.0,29.87,NW,309,2.0,9.0,45,0.00,,,0.00,weatherlink.com 1.10,2014-03-08 19:51:00,
2014-03-08 15:06:00,63.0,39.0,29.88,NNW,338,4.0,7.0,42,0.00,,,0.00,weatherlink.com 1.10,2014-03-08 20:06:00,
2014-03-08 15:21:00,62.8,40.0,29.87,NW,324,5.0,7.0,43,0.00,,,0.00,weatherlink.com 1.10,2014-03-08 20:21:00,
2014-03-08 15:36:00,62.4,40.0,29.86,NW,323,4.0,8.0,44,0.00,,,0.00,weatherlink.com 1.10,2014-03-08 20:36:00,
2014-03-08 15:51:00,61.8,39.0,29.86,NW,317,2.0,8.0,43,0.00,,,0.00,weatherlink.com 1.10,2014-03-08 20:51:00,
2014-03-08 16:06:00,61.9,40.0,29.86,NW,323,4.0,7.0,44,0.00,,,0.00,weatherlink.com 1.10,2014-03-08 21:06:00,
2014-03-08 16:21:00,61.5,39.0,29.86,WSW,246,3.0,6.0,44,0.00,,,0.00,weatherlink.com 1.10,2014-03-08 21:21:00,
2014-03-08 16:36:00,60.9,40.0,29.86,NNE,17,3.0,6.0,46,0.00,,,0.00,weatherlink.com 1.10,2014-03-08 21:36:00,
2014-03-08 16:51:00,60.5,39.0,29.86,West,276,2.0,5.0,45,0.00,,,0.00,weatherlink.com 1.10,2014-03-08 21:51:00,
2014-03-08 17:06:00,59.9,39.0,29.86,NW,311,1.0,3.0,46,0.00,,,0.00,weatherlink.com 1.10,2014-03-08 22:06:00,
2014-03-08 17:21:00,59.5,39.0,29.86,NW,311,0.0,1.0,47,0.00,,,0.00,weatherlink.com 1.10,2014-03-08 22:21:00,
2014-03-08 17:36:00,59.0,39.0,29.86,NNW,329,0.0,1.0,48,0.00,,,0.00,weatherlink.com 1.10,2014-03-08 22:36:00,
2014-03-08 17:51:00,58.4,39.0,29.87,NNW,329,0.0,1.0,48,0.00,,,0.00,weatherlink.com 1.10,2014-03-08 22:51:00,
2014-03-08 18:06:00,57.8,38.0,29.87,NNW,329,0.0,0.0,48,0.00,,,0.00,weatherlink.com 1.10,2014-03-08 23:06:00,
2014-03-08 18:21:00,57.3,38.0,29.88,NNW,329,0.0,0.0,48,0.00,,,0.00,weatherlink.com 1.10,2014-03-08 23:21:00,
2014-03-08 18:36:00,56.9,38.0,29.88,NNW,329,0.0,0.0,49,0.00,,,0.00,weatherlink.com 1.10,2014-03-08 23:36:00,
2014-03-08 18:51:00,56.4,38.0,29.89,NNW,329,0.0,0.0,50,0.00,,,0.00,weatherlink.com 1.10,2014-03-08 23:51:00,
2014-03-08 19:06:00,55.5,38.0,29.89,NNW,329,0.0,0.0,53,0.00,,,0.00,weatherlink.com 1.10,2014-03-09 00:06:00,
2014-03-08 19:21:00,54.5,38.0,29.90,NNW,329,0.0,0.0,54,0.00,,,0.00,weatherlink.com 1.10,2014-03-09 00:21:00,
2014-03-08 19:36:00,53.6,38.0,29.90,NNW,329,0.0,0.0,56,0.00,,,0.00,weatherlink.com 1.10,2014-03-09 00:36:00,
2014-03-08 19:51:00,52.7,39.0,29.90,NNW,329,0.0,0.0,59,0.00,,,0.00,weatherlink.com 1.10,2014-03-09 00:51:00,
2014-03-08 20:06:00,51.6,38.0,29.90,WNW,302,0.0,0.0,61,0.00,,,0.00,weatherlink.com 1.10,2014-03-09 01:06:00,
2014-03-08 20:21:00,50.7,38.0,29.90,WNW,302,0.0,0.0,62,0.00,,,0.00,weatherlink.com 1.10,2014-03-09 01:21:00,
2014-03-08 20:36:00,50.3,38.0,29.90,WNW,302,0.0,0.0,62,0.00,,,0.00,weatherlink.com 1.10,2014-03-09 01:36:00,
2014-03-08 20:51:00,49.8,38.0,29.90,WNW,302,0.0,0.0,64,0.00,,,0.00,weatherlink.com 1.10,2014-03-09 01:51:00,
2014-03-08 21:06:00,49.3,38.0,29.90,WNW,302,0.0,0.0,65,0.00,,,0.00,weatherlink.com 1.10,2014-03-09 02:06:00,
2014-03-08 21:21:00,49.2,38.0,29.90,WSW,246,0.0,2.0,65,0.00,,,0.00,weatherlink.com 1.10,2014-03-09 02:21:00,
2014-03-08 21:36:00,49.4,38.0,29.91,WSW,246,0.0,0.0,66,0.00,,,0.00,weatherlink.com 1.10,2014-03-09 02:36:00,
2014-03-08 21:51:00,49.4,38.0,29.90,WSW,246,0.0,0.0,65,0.00,,,0.00,weatherlink.com 1.10,2014-03-09 02:51:00,
2014-03-08 22:06:00,49.5,38.0,29.90,WSW,246,0.0,0.0,64,0.00,,,0.00,weatherlink.com 1.10,2014-03-09 03:06:00,
2014-03-08 22:21:00,49.2,37.0,29.90,WSW,246,0.0,0.0,64,0.00,,,0.00,weatherlink.com 1.10,2014-03-09 03:21:00,
2014-03-08 22:36:00,49.0,38.0,29.90,WSW,246,0.0,0.0,65,0.00,,,0.00,weatherlink.com 1.10,2014-03-09 03:36:00,
2014-03-08 22:51:00,48.4,37.0,29.90,NW,312,1.0,2.0,66,0.00,,,0.00,weatherlink.com 1.10,2014-03-09 03:51:00,
2014-03-08 23:06:00,48.8,38.0,29.89,NNE,20,2.0,4.0,66,0.00,,,0.00,weatherlink.com 1.10,2014-03-09 04:06:00,
2014-03-08 23:21:00,48.8,37.0,29.89,NNE,19,0.0,0.0,64,0.00,,,0.00,weatherlink.com 1.10,2014-03-09 04:21:00,
2014-03-08 23:36:00,49.3,37.0,29.89,NNE,19,0.0,0.0,64,0.00,,,0.00,weatherlink.com 1.10,2014-03-09 04:36:00,
2014-03-08 23:51:00,49.3,36.0,29.89,NNE,19,0.0,0.0,61,0.00,,,0.00,weatherlink.com 1.10,2014-03-09 04:51:00,